Back to catalog

COSMOS 2251 DEB

AliveLEO
NORAD 36528·DEBRIS·🇷🇺 Russia

Launched Jun 16, 1993 from Plesetsk Cosmodrome

Loading…

Next Passes (next 24 hours)

TLE

FreshSource: Space-Track

Epoch: Sep 14, 2026, 13:39 UTC

1 36528U 93036BCN 26257.56919869  .00000866  00000-0  32258-3 0  9993
2 36528  74.0197   2.1631 0084741 345.2117  14.6555 14.31516753683733

Track COSMOS 2251 DEB in real time with AllMySat

Download on the App Store